User: anonymous   Login
Location: Pine Mountain Observatory
(43.7910°N, 120.9377°W)
Time: 16:09:03
(UTC-07:00)
Language:

Tiros 1 despin weight - Orbit

View from above orbital plane
View from above orbital plane
View from above satellite
View from above satellite

Ground track
Ground track

The orbit data is extracted from the following two-line orbital elements,

1   115U 60002D   19141.05392152 -.00000042  00000-0  22178-4 0  9999
2   115  48.1680   5.7166 0034941 314.7279  45.0791 14.83442624154560
Epoch (UTC): 21 May 2019 01:17:38
Eccentricity: 0.0034941
inclination: 48.1680°
perigee height: 594 km
apogee height: 643 km
right ascension of ascending node: 5.7166°
argument of perigee: 314.7279°
revolutions per day: 14.83442624
mean anomaly at epoch: 45.0791°
orbit number at epoch: 15456

The dashed part of the orbit path shows where the satellite is in the earth's shadow,  

DLR